CAPE
168 454 447 732 1174 1288 1344 1253 1412 1755 2132 2417 2581 2365 2485 2502 2210 1755 1179 1069 1274 1179 753 370 619 1072 1113 1292 1371 1478 1983 1709 1612
563 535 620 697 1078 1263 1344 1428 1529 2023 2133 2312 2461 2280 2508 2560 2408 2014 1089 1218 1090 1139 1053 611 935 1049 1152 1136 1327 1366 1650 1660 1445
165 504 710 889 1012 1262 1341 1473 1608 2022 1925 2392 2404 2187 2478 2476 2338 2272 1759 1422 1234 1040 1112 1055 827 1008 1090 1223 1310 1477 1500 1083 1023
598 817 1141 759 1096 1233 1445 1558 1612 1870 2032 2188 2460 2303 2315 2403 2362 2271 2163 1303 1389 1546 1318 1286 1203 1051 1217 1177 1092 889 1083 1114 1133
932 958 1205 1407 918 1429 1598 1716 1773 1847 2031 2136 2424 2335 2567 2367 2392 2295 2119 1777 1336 1501 1520 1424 1328 1235 1336 1290 800 788 1074 1375 1347
1092 1167 1160 1483 1851 1675 1778 1903 1948 2040 2102 2085 2168 2415 2344 2277 2308 2310 2023 2034 1527 1534 1667 1662 1465 1347 1074 1216 1168 1052 1307 1505 1695
1175 1207 1173 1283 1623 1953 2181 2219 2208 2303 2322 2232 2235 2318 2313 2397 2350 2295 2065 2034 2071 1608 1788 1735 1619 1595 1324 1234 1275 1188 1273 1170 1395
1098 1094 1025 1180 1339 1571 1911 2230 2306 2496 2478 2480 2362 2614 2758 2747 2761 2647 2533 2455 2357 2009 1842 1740 1820 1642 1242 1298 1052 1041 1359 1248 1401
791 693 857 914 1082 1294 1398 1567 1906 2241 2413 2728 2739 2715 2766 2877 3198 2924 2946 2763 2737 2368 2057 1996 2046 1559 1258 1175 898 764 1011 1376 1516
234 208 215 304 649 805 1122 1230 1256 1337 2410 2151 2663 2873 2932 3069 3037 3161 3110 3013 3023 2732 2408 2081 2212 1877 1505 1410 1545 1136 955 875 1216
0 0 8 47 107 285 662 998 1162 1185 1811 2329 2180 2441 2727 2892 3066 3068 3202 3173 3021 2865 2643 2329 2135 1989 1669 1689 1813 1243 964 864 1162
25 0 0 0 0 0 180 671 1152 1117 1469 2462 301 0 177 2123 2931 3126 3178 3220 3136 3078 2922 2813 2560 2377 2207 2110 2038 1186 920 1039 1262
0 0 0 0 12 8 17 179 525 1098 1230 1475 1964 637 1066 1720 2914 2917 3007 3042 3234 3271 3228 3105 2753 2584 2549 2485 2463 1951 1086 980 1133
0 0 0 0 0 0 11 17 196 624 955 1282 1529 1868 2081 2299 2777 2878 2849 2893 3083 2978 3168 2939 2872 2930 2774 2604 2328 2621 1429 1004 1416
1 1 2 4 8 0 0 29 24 292 574 656 1069 1419 1694 2713 2970 2891 2874 2765 2721 2631 2577 2836 2832 2702 2555 2493 2600 1963 1473 1080 956
13 7 9 9 61 32 0 0 22 58 325 448 458 861 1376 1376 2188 2666 2584 2430 2241 2038 2285 2062 1914 2243 2190 2011 2325 2623 1398 951 690
15 17 16 33 63 37 47 49 7 71 177 205 331 378 1096 1273 1693 2039 2331 2114 2191 2227 1794 1833 1777 2075 1838 1174 1046 1687 1712 791 521
44 22 14 20 22 32 9 39 92 9 124 132 147 271 421 984 1135 1873 2203 2049 2080 1671 1740 1256 1496 907 259 0 0 276 393 1351 800
27 17 16 7 23 39 13 18 33 57 22 152 175 179 157 474 794 1511 932 1210 472 0 0 36 399 238 259 404 0 66 247 840 665
17 31 16 31 41 48 20 5 25 29 50 34 100 155 204 313 708 1011 485 406 184 162 0 0 2 116 23 0 204 66 83 369 351
CIN
-21 -14 -9 -20 -31 -32 -40 -39 -26 -26 -46 -45 -35 -29 -14 -5 -1 -3 -2 -4 -0 -2 -9 -28 -14 -3 -7 -1 -2 -1 -1 -2 -0
-7 -17 -3 -11 -32 -35 -41 -47 -51 -66 -65 -64 -51 -52 -25 -11 -5 -2 -6 -2 -5 -2 -2 -4 -1 -1 -1 -3 -0 -0 -1 -1 -1
-18 -16 -26 -9 -3 -23 -31 -43 -39 -66 -70 -71 -70 -42 -31 -24 -17 -11 -1 -1 -7 -2 -3 -5 -4 -11 -1 -1 -1 -1 -2 -7 -4
-42 -41 -41 -41 -14 -4 -24 -30 -37 -46 -63 -61 -51 -39 -25 -28 -25 -18 -10 -12 -3 -1 -1 -2 -4 -2 -3 -3 -1 -23 -16 -9 -3
-98 -100 -86 -60 -40 -19 -16 -26 -34 -52 -42 -49 -42 -22 -17 -27 -25 -26 -22 -32 -38 -13 -4 -1 -4 -1 -1 -2 -1 -7 -11 -2 -6
-88 -125 -138 -117 -92 -42 -43 -44 -21 -32 -42 -31 -27 -28 -24 -18 -19 -23 -19 -28 -42 -42 -20 -5 -0 -1 -2 -1 -1 -0 -0 -1 -1
-88 -122 -150 -174 -150 -142 -110 -76 -50 -28 -35 -34 -20 -13 -16 -15 -21 -23 -38 -30 -38 -47 -43 -24 -10 -1 -2 -1 -1 -1 -1 -3 -3
-87 -105 -146 -150 -150 -156 -117 -91 -78 -55 -43 -41 -37 -17 -5 -10 -16 -17 -27 -16 -38 -45 -46 -51 -28 -7 -5 -0 -2 -1 -1 -6 -5
-71 -103 -107 -137 -136 -140 -153 -139 -99 -64 -50 -29 -22 -19 -16 -14 -9 -22 -17 -20 -21 -51 -43 -34 -20 -29 -25 -12 -3 -3 -6 -4 -1
-87 -132 -177 -186 -144 -174 -143 -136 -139 -163 -27 -49 -11 -2 -1 -3 -21 -24 -15 -14 -8 -27 -36 -44 -13 -19 -22 -19 -9 -7 -12 -9 -1
-0 -0 -104 -196 -202 -213 -182 -124 -120 -134 -55 -31 -60 -10 -4 -1 -4 -29 -25 -11 -9 -13 -24 -33 -43 -27 -29 -18 -12 -32 -34 -45 -24
-68 -0 -0 -0 -0 -0 -223 -151 -85 -85 -73 -14 -299 -0 -112 -11 -3 -6 -16 -10 -8 -8 -8 -11 -27 -26 -24 -23 -19 -65 -80 -54 -22
-0 -0 -0 -0 -186 -246 -235 -223 -163 -56 -20 -20 -24 -185 -87 -16 -1 -21 -21 -18 -5 -2 -1 -0 -7 -7 -7 -26 -33 -48 -99 -98 -35
-0 -0 -0 -0 -0 -0 -119 -242 -196 -93 -31 -1 -32 -26 -18 -6 -2 -15 -39 -10 -6 -6 -0 -1 -1 -1 -0 -6 -40 -19 -100 -121 -59
-96 -116 -143 -128 -111 -0 -0 -182 -217 -157 -99 -80 -48 -69 -61 -2 -1 -5 -15 -13 -8 -14 -10 -0 -0 -1 -2 -1 -9 -78 -109 -126 -121
-193 -225 -256 -246 -142 -195 -226 -0 -193 -176 -133 -124 -137 -79 -58 -85 -21 -2 -6 -4 -4 -19 -6 -6 -4 -3 -8 -7 -6 -3 -115 -159 -171
-169 -3 -5 -189 -172 -182 -178 -174 -234 -148 -114 -127 -131 -161 -48 -55 -39 -25 -7 -18 -10 -3 -30 -20 -3 -1 -8 -84 -102 -74 -83 -203 -229
-163 -16 -3 -1 -2 -184 -129 -172 -137 -193 -105 -111 -111 -105 -92 -29 -38 -17 -18 -19 -16 -32 -17 -34 -27 -116 -221 -0 -0 -162 -194 -75 -152
-1 -1 -4 -1 -4 -1 -1 -2 -62 -124 -157 -71 -84 -105 -85 -17 -15 -18 -117 -57 -175 -0 -0 -77 -123 -142 -121 -99 -0 -182 -188 -135 -113
-3 -1 -1 -1 -1 -1 -2 -10 -2 -15 -104 -123 -73 -100 -90 -53 -22 -37 -126 -154 -240 -196 -0 -0 -0 -191 -196 -2 -216 -240 -260 -164 -180
Wind_Speed
13 10 8 9 13 14 14 15 15 15 15 16 16 16 15 14 13 10 8 10 7 10 5 12 5 9 8 5 3 4 16 14 18
15 13 11 5 9 12 13 14 15 15 16 16 17 16 14 13 13 13 7 4 9 3 3 4 6 13 8 6 6 4 14 23 20
19 19 18 9 4 8 11 12 13 13 16 16 16 16 14 13 14 13 12 5 5 7 4 5 3 7 9 9 7 6 15 15 14
20 21 22 20 5 2 5 8 10 12 14 14 16 16 14 13 13 13 14 10 10 10 9 6 8 4 7 8 5 6 6 9 27
20 21 23 23 17 8 5 3 4 7 11 14 15 16 12 12 12 12 12 12 9 7 8 6 4 8 7 6 7 10 11 12 34
20 22 23 23 22 19 13 12 7 4 6 12 11 13 15 15 13 10 11 10 9 5 6 6 9 5 8 9 7 6 6 13 6
22 23 23 23 22 21 21 20 18 16 9 6 10 12 15 14 14 13 12 9 10 8 6 7 10 8 7 10 10 8 10 15 24
24 25 25 25 24 23 22 21 21 21 20 18 15 8 11 12 11 12 12 9 8 8 6 6 7 7 7 8 10 12 16 14 9
26 27 27 26 25 25 24 23 23 23 23 22 22 21 11 9 9 11 10 10 7 7 7 6 7 8 8 8 8 9 10 9 13
27 28 28 28 28 28 27 26 26 26 27 24 24 26 26 13 11 11 11 10 9 9 8 7 7 8 8 9 8 13 15 13 14
28 29 29 29 29 30 30 30 28 29 28 29 23 29 32 26 16 12 11 11 12 11 10 9 9 9 9 10 10 10 14 17 19
30 31 32 31 31 32 32 32 32 31 32 30 32 37 40 43 22 16 13 13 13 12 11 10 13 12 12 11 10 9 10 14 19
34 35 35 36 36 36 35 34 34 33 33 33 31 28 39 44 22 18 17 14 14 15 13 12 11 13 14 12 11 10 10 11 19
40 41 40 40 40 40 39 37 35 35 35 34 30 30 27 19 24 25 21 19 19 18 15 14 13 13 16 19 16 15 13 12 14
44 45 45 45 45 43 41 39 39 40 38 37 34 34 33 33 30 27 25 22 24 20 20 18 16 13 16 16 17 14 15 14 13
47 47 42 42 43 44 43 39 39 41 40 39 39 37 35 35 36 36 30 27 26 22 24 20 20 18 16 14 17 20 18 17 15
47 45 41 40 41 43 41 41 40 40 40 39 39 40 38 36 35 35 34 30 27 24 22 21 25 20 22 23 20 24 26 24 22
46 47 44 38 38 39 44 41 39 39 40 39 39 39 38 37 37 34 35 34 33 31 33 32 23 22 21 20 22 26 26 32 24
44 45 44 42 34 38 38 40 42 39 39 40 39 39 37 37 35 33 34 33 33 32 32 31 24 16 21 24 22 21 30 27 20
44 42 42 39 34 37 35 38 42 43 39 40 40 38 37 37 35 34 35 34 36 35 37 48 37 14 11 13 22 24 26 12 14
Wind_Direction
3 28 61 106 136 142 143 153 156 159 162 167 167 167 167 165 164 157 158 167 169 175 188 177 206 190 209 242 239 252 277 285 285
8 354 357 47 129 149 150 155 157 160 164 166 170 169 164 164 165 166 151 161 172 220 243 206 170 173 186 217 196 241 276 271 280
358 357 346 349 124 150 157 158 158 158 166 168 170 170 166 166 166 167 167 156 172 178 264 235 239 196 186 182 259 253 275 282 285
346 344 343 338 341 155 159 157 162 162 167 169 173 173 170 170 169 168 168 164 165 167 173 275 261 224 190 192 223 205 241 277 261
336 338 337 335 335 327 318 202 180 173 169 172 172 174 174 176 174 171 171 172 168 169 176 197 244 269 262 230 192 180 180 181 231
329 329 331 334 331 324 313 301 287 247 192 180 178 177 176 179 178 182 179 177 175 184 185 193 186 214 253 255 231 226 212 189 226
319 321 323 324 327 326 315 304 295 289 278 230 188 184 184 182 183 182 184 185 178 179 188 194 186 199 230 256 261 260 271 281 275
318 317 317 315 316 318 321 314 301 291 286 284 278 217 195 191 190 188 186 192 193 190 198 199 204 211 234 248 256 269 279 282 275
312 313 312 312 310 308 310 312 307 300 289 283 280 275 249 229 209 199 205 205 215 208 204 209 201 197 210 235 238 246 264 269 286
312 310 308 306 305 303 301 303 304 302 296 287 279 274 271 255 240 214 218 224 218 212 217 226 219 231 222 215 233 273 278 277 280
311 310 308 307 305 302 299 297 299 299 299 286 280 272 268 268 259 238 220 221 223 216 237 237 236 240 239 252 254 250 262 271 280
312 311 307 305 303 301 299 297 297 296 295 296 283 274 277 253 263 258 239 215 225 239 230 229 257 251 247 242 250 225 229 260 274
307 306 302 299 296 295 294 296 295 292 291 294 295 289 277 246 266 259 260 239 238 250 239 240 240 253 254 241 245 242 227 237 272
301 296 296 295 292 290 289 291 291 288 286 286 293 292 286 282 277 271 265 263 259 255 245 243 248 250 266 264 253 263 242 243 264
285 287 284 282 281 285 286 286 285 282 281 285 289 286 287 284 278 274 268 264 262 257 257 257 257 252 267 264 260 251 261 250 242
289 291 301 299 291 285 282 285 283 281 280 282 282 284 283 283 279 274 270 267 263 258 260 256 256 260 261 258 263 268 268 267 261
299 299 304 304 297 291 289 284 281 280 279 280 280 279 281 281 280 276 271 269 264 255 254 252 260 258 262 269 272 270 274 277 277
302 300 301 302 301 295 287 284 281 278 276 276 275 275 277 276 276 276 270 266 263 262 263 262 254 254 256 266 273 268 266 269 276
307 303 300 300 301 295 292 284 277 276 272 271 271 271 273 272 273 274 274 268 270 276 270 269 260 257 258 277 277 263 246 260 269
310 305 301 299 299 295 293 284 276 272 270 266 266 267 270 271 272 275 273 273 270 276 276 275 265 248 184 249 274 266 264 256 264